AAL9900 KBID-KBOS

Flight info

Callsign AAL9900
Flight time 0h 36m
Altitude 14000
Route YANTC WOONS
Aircraft B738/M-SDE2E3FGHIRWXY/LB1

Departure

Time 2026-05-04 17:38
Airport Block Island State Airport (KBID)

Arrival

Time 2026-05-04 18:14
Airport Boston Logan International Airport (KBOS)
Time Latitude Longitude Altitude Speed Heading
2026-05-04 17:23 41.16898 -71.57972 123 ft 0 kts 10°
2026-05-04 17:32 41.16891 -71.57973 123 ft 2 kts 11°
2026-05-04 17:33 41.16885 -71.57968 123 ft 5 kts 73°
2026-05-04 17:33 41.16895 -71.57927 123 ft 2 kts 72°
2026-05-04 17:34 41.16898 -71.57890 122 ft 0 kts 83°
2026-05-04 17:36 41.16890 -71.57859 121 ft 9 kts 122°
2026-05-04 17:36 41.16882 -71.57778 119 ft 9 kts 84°
2026-05-04 17:36 41.16889 -71.57672 114 ft 14 kts 88°
2026-05-04 17:36 41.16877 -71.57584 111 ft 4 kts 101°
2026-05-04 17:37 41.16861 -71.57524 108 ft 10 kts 130°
2026-05-04 17:37 41.16837 -71.57404 102 ft 17 kts 92°
2026-05-04 17:37 41.16843 -71.57367 100 ft 0 kts 284°
2026-05-04 17:37 41.16844 -71.57371 100 ft 0 kts 277°
2026-05-04 17:38 41.16837 -71.57509 108 ft 59 kts 263°
2026-05-04 17:38 41.16757 -71.58459 414 ft 131 kts 258°
2026-05-04 17:38 41.16641 -71.59541 1674 ft 125 kts 254°
2026-05-04 17:38 41.16182 -71.60509 2430 ft 139 kts 217°
2026-05-04 17:39 41.14743 -71.62516 4091 ft 177 kts 251°
2026-05-04 17:39 41.14767 -71.64170 5075 ft 198 kts 287°
2026-05-04 17:39 41.15694 -71.65604 6098 ft 225 kts 318°
2026-05-04 17:40 41.17078 -71.66710 7149 ft 241 kts 322°
2026-05-04 17:40 41.18557 -71.67860 8099 ft 257 kts 321°
2026-05-04 17:40 41.20106 -71.69147 9031 ft 273 kts 319°
2026-05-04 17:40 41.21690 -71.70579 10123 ft 281 kts 319°
2026-05-04 17:41 41.23345 -71.72036 11071 ft 296 kts 321°
2026-05-04 17:41 41.25110 -71.73528 11914 ft 314 kts 322°
2026-05-04 17:41 41.26999 -71.75125 12751 ft 330 kts 322°
2026-05-04 17:41 41.28958 -71.76792 13767 ft 339 kts 322°
2026-05-04 17:42 41.30929 -71.78483 14823 ft 345 kts 322°
2026-05-04 17:42 41.32931 -71.80207 15713 ft 351 kts 322°
2026-05-04 17:42 41.34975 -71.81972 16043 ft 351 kts 322°
2026-05-04 17:42 41.37037 -71.83752 16045 ft 347 kts 322°
2026-05-04 17:43 41.39034 -71.85475 16042 ft 342 kts 322°
2026-05-04 17:43 41.41033 -71.87206 16017 ft 341 kts 322°
2026-05-04 17:43 41.42994 -71.88907 16013 ft 341 kts 322°
2026-05-04 17:43 41.44990 -71.90640 16012 ft 340 kts 322°
2026-05-04 17:44 41.46964 -71.92357 16011 ft 339 kts 322°
2026-05-04 17:44 41.48931 -71.94067 15998 ft 339 kts 322°
2026-05-04 17:44 41.50942 -71.95699 16024 ft 341 kts 327°
2026-05-04 17:44 41.53200 -71.96812 16040 ft 351 kts 343°
2026-05-04 17:45 41.55651 -71.96880 16043 ft 362 kts
2026-05-04 17:45 41.58099 -71.95904 16045 ft 371 kts 19°
2026-05-04 17:45 41.60348 -71.94165 16046 ft 376 kts 31°
2026-05-04 17:45 41.62396 -71.91949 16045 ft 379 kts 37°
2026-05-04 17:46 41.64304 -71.89583 16044 ft 380 kts 40°
2026-05-04 17:46 41.66222 -71.87091 16045 ft 380 kts 40°
2026-05-04 17:46 41.68106 -71.84637 16043 ft 380 kts 40°
2026-05-04 17:46 41.70006 -71.82189 16044 ft 380 kts 40°
2026-05-04 17:47 41.71901 -71.79778 16045 ft 380 kts 39°
2026-05-04 17:47 41.73826 -71.77350 16043 ft 380 kts 39°
2026-05-04 17:47 41.75748 -71.74942 16045 ft 380 kts 39°
2026-05-04 17:47 41.77687 -71.72518 16045 ft 380 kts 39°
2026-05-04 17:48 41.79614 -71.70112 16045 ft 380 kts 39°
2026-05-04 17:48 41.81546 -71.67698 16046 ft 380 kts 39°
2026-05-04 17:48 41.83463 -71.65299 16045 ft 380 kts 39°
2026-05-04 17:48 41.85402 -71.62870 16047 ft 378 kts 39°
2026-05-04 17:49 41.87321 -71.60465 16045 ft 378 kts 39°
2026-05-04 17:49 41.89242 -71.58055 16047 ft 378 kts 39°
2026-05-04 17:49 41.91147 -71.55662 16046 ft 378 kts 39°
2026-05-04 17:49 41.93059 -71.53258 16047 ft 378 kts 39°
2026-05-04 17:50 41.95019 -71.50856 16047 ft 377 kts 37°
2026-05-04 17:50 41.97045 -71.48669 16046 ft 376 kts 32°
2026-05-04 17:50 41.99187 -71.46592 16047 ft 387 kts 30°
2026-05-04 17:50 42.01399 -71.44542 16009 ft 390 kts 30°
2026-05-04 17:51 42.03650 -71.42471 15691 ft 386 kts 30°
2026-05-04 17:51 42.05820 -71.40455 15197 ft 377 kts 30°
2026-05-04 17:51 42.07968 -71.38442 14603 ft 380 kts 30°
2026-05-04 17:51 42.10117 -71.36423 13970 ft 378 kts 30°
2026-05-04 17:52 42.12267 -71.34389 13316 ft 373 kts 31°
2026-05-04 17:52 42.14357 -71.32396 12660 ft 369 kts 31°
2026-05-04 17:52 42.16418 -71.30422 12028 ft 364 kts 31°
2026-05-04 17:52 42.18481 -71.28443 11395 ft 360 kts 31°
2026-05-04 17:53 42.20491 -71.26514 10888 ft 356 kts 31°
2026-05-04 17:53 42.22480 -71.24603 10627 ft 345 kts 31°
2026-05-04 17:53 42.24395 -71.22762 10498 ft 328 kts 30°
2026-05-04 17:53 42.26200 -71.21029 10364 ft 313 kts 30°
2026-05-04 17:54 42.27943 -71.19353 10231 ft 304 kts 30°
2026-05-04 17:54 42.29684 -71.17687 9984 ft 307 kts 30°
2026-05-04 17:54 42.31424 -71.16031 9558 ft 306 kts 30°
2026-05-04 17:54 42.33145 -71.14382 9164 ft 304 kts 30°
2026-05-04 17:55 42.34863 -71.12724 8775 ft 302 kts 30°
2026-05-04 17:55 42.36548 -71.11104 8395 ft 299 kts 30°
2026-05-04 17:55 42.38239 -71.09466 8012 ft 297 kts 31°
2026-05-04 17:55 42.39909 -71.07845 7631 ft 295 kts 31°
2026-05-04 17:56 42.41574 -71.06231 7253 ft 293 kts 31°
2026-05-04 17:56 42.43232 -71.04652 6877 ft 291 kts 30°
2026-05-04 17:56 42.44873 -71.03047 6520 ft 289 kts 31°
2026-05-04 17:56 42.46491 -71.01479 6235 ft 284 kts 30°
2026-05-04 17:57 42.48092 -70.99945 5932 ft 280 kts 30°
2026-05-04 17:57 42.49665 -70.98435 5712 ft 274 kts 30°
2026-05-04 17:57 42.51185 -70.96960 5617 ft 263 kts 30°
2026-05-04 17:57 42.52644 -70.95538 5526 ft 253 kts 30°
2026-05-04 17:58 42.54041 -70.94193 5435 ft 244 kts 30°
2026-05-04 17:58 42.55407 -70.92865 5344 ft 236 kts 31°
2026-05-04 17:58 42.56630 -70.91377 5262 ft 241 kts 47°
2026-05-04 17:58 42.57291 -70.89349 5161 ft 237 kts 85°
2026-05-04 17:59 42.57048 -70.87183 4941 ft 229 kts 120°
2026-05-04 17:59 42.56193 -70.85415 4678 ft 222 kts 139°
2026-05-04 17:59 42.53672 -70.83922 4246 ft 190 kts 194°
2026-05-04 18:00 42.52404 -70.84285 4063 ft 182 kts 206°
2026-05-04 18:00 42.51351 -70.85081 4040 ft 168 kts 227°
2026-05-04 18:00 42.50651 -70.86331 4046 ft 166 kts 243°
2026-05-04 18:00 42.50232 -70.87764 4041 ft 165 kts 258°
2026-05-04 18:01 42.50310 -70.89321 4049 ft 168 kts 276°
2026-05-04 18:01 42.50351 -70.90886 4046 ft 166 kts 261°
2026-05-04 18:01 42.50106 -70.92414 4044 ft 166 kts 248°
2026-05-04 18:02 42.48351 -70.94482 4044 ft 173 kts 216°
2026-05-04 18:02 42.47255 -70.95204 4045 ft 175 kts 210°
2026-05-04 18:02 42.46111 -70.95819 4045 ft 176 kts 208°
2026-05-04 18:02 42.44937 -70.96326 4045 ft 179 kts 202°
2026-05-04 18:03 42.43737 -70.96767 4046 ft 178 kts 205°
2026-05-04 18:03 42.42582 -70.97304 4045 ft 176 kts 208°
2026-05-04 18:03 42.41422 -70.97907 4046 ft 176 kts 208°
2026-05-04 18:03 42.40284 -70.98504 4044 ft 176 kts 208°
2026-05-04 18:04 42.39103 -70.98960 4040 ft 184 kts 190°
2026-05-04 18:04 42.37820 -70.98458 4043 ft 205 kts 153°
2026-05-04 18:04 42.36409 -70.95073 4075 ft 204 kts 115°
2026-05-04 18:05 42.35942 -70.93282 4090 ft 201 kts 116°
2026-05-04 18:05 42.35461 -70.91491 4101 ft 201 kts 116°
2026-05-04 18:05 42.35002 -70.89702 4030 ft 200 kts 109°
2026-05-04 18:05 42.35021 -70.87807 3799 ft 207 kts 70°
2026-05-04 18:06 42.36991 -70.85272 3398 ft 197 kts 24°
2026-05-04 18:06 42.38147 -70.84290 3212 ft 197 kts 26°
2026-05-04 18:06 42.39304 -70.83289 3033 ft 196 kts 26°
2026-05-04 18:07 42.40447 -70.82317 2854 ft 196 kts 26°
2026-05-04 18:07 42.41611 -70.81341 2681 ft 195 kts 26°
2026-05-04 18:07 42.42763 -70.80388 2497 ft 195 kts 25°
2026-05-04 18:07 42.43962 -70.79569 2316 ft 186 kts
2026-05-04 18:08 42.45144 -70.79679 2240 ft 163 kts 323°
2026-05-04 18:08 42.45905 -70.80673 2248 ft 152 kts 294°
2026-05-04 18:08 42.46476 -70.81885 2239 ft 151 kts 295°
2026-05-04 18:08 42.47091 -70.83072 2241 ft 157 kts 297°
2026-05-04 18:09 42.48336 -70.85500 2236 ft 159 kts 295°
2026-05-04 18:09 42.49407 -70.87981 2231 ft 147 kts 271°
2026-05-04 18:10 42.49131 -70.89267 2242 ft 146 kts 236°
2026-05-04 18:10 42.48523 -70.90353 2234 ft 141 kts 235°
2026-05-04 18:10 42.47949 -70.91449 2239 ft 142 kts 236°
2026-05-04 18:10 42.47372 -70.92551 2236 ft 144 kts 235°
2026-05-04 18:11 42.46798 -70.93646 2171 ft 145 kts 236°
2026-05-04 18:11 42.46202 -70.94790 1816 ft 153 kts 236°
2026-05-04 18:11 42.45547 -70.95936 1520 ft 155 kts 224°
2026-05-04 18:11 42.44609 -70.96549 1521 ft 147 kts 204°
2026-05-04 18:12 42.43642 -70.97037 1380 ft 147 kts 209°
2026-05-04 18:12 42.42704 -70.97533 1168 ft 138 kts 206°
2026-05-04 18:12 42.41857 -70.97903 998 ft 121 kts 204°
2026-05-04 18:12 42.41114 -70.98277 818 ft 108 kts 204°
2026-05-04 18:13 42.40429 -70.98604 685 ft 101 kts 205°
2026-05-04 18:13 42.39763 -70.98945 546 ft 103 kts 202°
2026-05-04 18:13 42.38337 -70.99619 266 ft 105 kts 203°
2026-05-04 18:14 42.37650 -70.99946 91 ft 107 kts 203°
2026-05-04 18:14 42.36989 -71.00260 15 ft 92 kts 202°
2026-05-04 18:14 42.36516 -71.00497 14 ft 44 kts 202°
2026-05-04 18:15 42.36153 -71.00771 14 ft 23 kts 267°
2026-05-04 18:15 42.36260 -71.01145 18 ft 20 kts 300°
2026-05-04 18:15 42.36335 -71.01310 18 ft 14 kts 300°
2026-05-04 18:16 42.36332 -71.01435 18 ft 20 kts 208°
2026-05-04 18:16 42.36189 -71.01503 18 ft 22 kts 200°
2026-05-04 18:16 42.36036 -71.01578 18 ft 24 kts 200°
2026-05-04 18:17 42.35949 -71.01875 18 ft 13 kts 305°
2026-05-04 18:17 42.36005 -71.01878 17 ft 4 kts 30°
2026-05-04 18:17 42.36014 -71.01871 17 ft 0 kts 30°